(13) Egeria
ephemeris date magn radius delta ra dec elong phase
Today21 Nov 202410.22.436 AU1.480 AU04h43m+34°00'161.0°7.6°
Opposition2 Dec 202410.12.427 AU1.457 AU04h28m+35°03'166.9°5.3°
(13) Egeria - 2024-11-21
astro.vanbuitenen.nl


 
-1 year
-1 month
-1 day
Now
+1 day
+1 month
+1 year

The interactive orbit chart above shows the body's path through the solar system and its position at the given date. Green and blue lines are shown perpendicular to the ecliptic plane: Green if the path is above the ecliptic plane, blue if it is below. (Left-click and drag to rotate the view; Right-click and drag to move the view; Use scroll wheel to zoom in our out.)

The orbital elements of Egeria are:

            e (Eccentricity)                : 0.0854027
            a (Semimajor axis)              : 2.5777354
            i (Inclination)                 : 16.53187
            Ω (Longitude of ascending node) : 43.20800
            ω (Argument of perihelion)      : 79.22238
            M (Mean anomaly)                : 305.54672
            Epoch                           : 2024 Oct 17

            L (Longitude of perihelion)     : 121.97722
            B (Latitude of perihelion)      : 16.23211
            P (Orbital period in years)     : 4.14            
        

The light curve chart below shows the estimated development of the minor planet's magnitude.


The all-sky chart below shows the path of the minor planet over the same period as the light curve. The current position is marked yellow.





The following chart shows the path of the minor planet in the next few days. The field of view is optimized for (~10x50) binoculars and finderscopes. A more printer-friendly version of the same chart can be found below.




Ephemerides:
Date       Time       RA (2000)    DEC (2000)    delta   radius  elong  phase   PA    magn
2024-11-21 00:00 UT   04 43 26.1   +34 00 36     1.480    2.436  161.0    7.6   225   10.2 
2024-11-21 12:33 UT   04 42 48.8   +34 03 58     1.478    2.435  161.5    7.4   224   10.2 
2024-11-22 00:00 UT   04 42 14.6   +34 07 01     1.477    2.435  161.9    7.2   223   10.2 
2024-11-23 00:00 UT   04 41 02.0   +34 13 15     1.474    2.434  162.7    6.9   219   10.2 
2024-11-24 00:00 UT   04 39 48.2   +34 19 20     1.471    2.434  163.5    6.6   216   10.2 
2024-11-25 00:00 UT   04 38 33.4   +34 25 14     1.468    2.433  164.2    6.3   212   10.2 
2024-11-26 00:00 UT   04 37 17.8   +34 30 57     1.466    2.432  164.9    6.1   208   10.1 
2024-11-27 00:00 UT   04 36 01.3   +34 36 29     1.464    2.431  165.5    5.8   203   10.1 
2024-11-28 00:00 UT   04 34 44.1   +34 41 49     1.462    2.431  166.0    5.6   198   10.1 
2024-11-29 00:00 UT   04 33 26.3   +34 46 58     1.460    2.430  166.4    5.5   193   10.1 
2024-11-30 00:00 UT   04 32 08.0   +34 51 55     1.459    2.429  166.7    5.4   188   10.1 
2024-12-01 00:00 UT   04 30 49.4   +34 56 40     1.458    2.429  166.8    5.3   182   10.1 
2024-12-02 00:00 UT   04 29 30.5   +35 01 13     1.457    2.428  166.9    5.3   176   10.1 
2024-12-03 00:00 UT   04 28 11.4   +35 05 34     1.457    2.427  166.8    5.3   170   10.1 
2024-12-04 00:00 UT   04 26 52.3   +35 09 43     1.457    2.426  166.7    5.4   165   10.1 
2024-12-05 00:00 UT   04 25 33.2   +35 13 39     1.457    2.426  166.4    5.5   159   10.1 
2024-12-06 00:00 UT   04 24 14.4   +35 17 24     1.457    2.425  166.0    5.7   154   10.1 
2024-12-07 00:00 UT   04 22 55.9   +35 20 56     1.458    2.424  165.5    5.9   149   10.1 
2024-12-08 00:00 UT   04 21 37.8   +35 24 16     1.459    2.424  164.9    6.1   145   10.1 
2024-12-09 00:00 UT   04 20 20.2   +35 27 25     1.460    2.423  164.2    6.3   140   10.1 
2024-12-10 00:00 UT   04 19 03.3   +35 30 21     1.462    2.422  163.5    6.6   136   10.2 
2024-12-11 00:00 UT   04 17 47.1   +35 33 06     1.464    2.422  162.7    6.9   133   10.2 
2024-12-12 00:00 UT   04 16 31.8   +35 35 40     1.466    2.421  161.9    7.3   130   10.2 
2024-12-13 00:00 UT   04 15 17.4   +35 38 02     1.468    2.420  161.0    7.6   127   10.2 
2024-12-14 00:00 UT   04 14 04.1   +35 40 14     1.471    2.419  160.1    8.0   124   10.2 
2024-12-15 00:00 UT   04 12 51.9   +35 42 14     1.474    2.419  159.1    8.3   121   10.2 
2024-12-16 00:00 UT   04 11 40.9   +35 44 04     1.477    2.418  158.2    8.7   119   10.3 
2024-12-17 00:00 UT   04 10 31.2   +35 45 44     1.480    2.417  157.2    9.1   117   10.3 
2024-12-18 00:00 UT   04 09 22.9   +35 47 14     1.484    2.417  156.2    9.5   115   10.3 
2024-12-19 00:00 UT   04 08 16.2   +35 48 35     1.488    2.416  155.2    9.9   113   10.3 
2024-12-20 00:00 UT   04 07 10.9   +35 49 46     1.492    2.415  154.1   10.2   111   10.4 
2024-12-21 00:00 UT   04 06 07.4   +35 50 48     1.496    2.415  153.1   10.6   110   10.4 


    Terminology:
            
    delta:  distance between minor planet and earth in AU
    radius: distance between minor planet and sun in AU
    magn:   magnitude (brightness) estimate    
    ra:     right ascension in hours (24h = 360deg)
    dec:    declination in degrees
    elong:  elongation in degrees (angle sun-earth-minor planet)    
    phase:  phase angle in degrees (angle sun-minor planet-earth)        
    AU:     Astronomical Unit (mean distance between earth and sun: 149597870.7 km
    

Orbital elements provided by the MPC (Minor Planet Center).
Calculations by a modified version of AAPlus, a C# implementation of the AA+ project by PJ Naughter from the algorithms presented in the book "Astronomical Algorithms" by Jean Meeus.
NGC2000 dso catalog and star labels from VizieR as provided by the Strasbourg astronomical Data Center.
Tycho2 catalog from the ESO archive.